Location: ????????
(55.1591°N, 39.1782°E)
Time: 17:52:04
(UTC+00:00)

COBE Rocket - Pass Details

Date: 14 April 2024
Orbit: 676 x 778 km, 97.1° (Epoch: 23 May)

Event Time Altitude Azimuth Distance (km) Brightness Sun altitude
Rises 00:30:23 0° 10° (N) 3,103 8.0 -14.5°
Reaches altitude 10° 00:32:45 10° 3° (N) 2,167 7.0 -14.3°
Maximum altitude 00:37:11 41° 294° (WNW) 998 4.4 -13.8°
Enters shadow 00:39:53 21° 235° (SW) 1,536 4.9 -13.5°
